Location: Brno
(49.2000°N, 16.6330°E)
Time: 23:21:05
(UTC+02:00)

BREEZE M DEB (TANK) - Visible Passes

Search period start: 30 June 2016 00:00
Search period end: 10 July 2016 00:00
Orbit: 291 x 12030 km, 49.6° (Epoch: 29 June)

Date Brightness Start Highest point End Pass type
(mag) Time Alt. Az. Time Alt. Az. Time Alt. Az.
30 Jun 8.7 22:03:20 10° NW 22:48:03 19° WNW 23:25:15 10° WSW visible
01 Jul 8.5 21:09:07 10° NW 22:06:34 25° W 22:50:42 10° WSW visible
02 Jul 8.3 20:17:29 10° NW 21:24:08 33° W 22:12:28 10° SW visible
05 Jul 9.4 22:51:44 10° WNW 22:57:46 10° WNW 23:03:44 10° WNW visible
06 Jul 9.1 21:39:29 10° NW 22:17:20 16° WNW 22:52:03 10° W visible
07 Jul 8.8 20:44:06 10° NW 21:36:01 23° WNW 22:20:43 10° WSW visible
08 Jul 8.6 19:52:11 10° NW 20:53:45 30° W 21:44:11 10° SW visible
